"Pseudo-MPEC" for P213r5K

Created 2020 Aug 11 23:07:23 UT using Find_Orb

Click here for an explanation of pseudo-MPECs

 
 Astrometry: 
     P213r5K  C2020 07 31_Vdjl!VE!pqRCkv]c?aFm=OCgVd?rIPt3@@hv@jl7jy45urynYyaF52
     P213r5K  C2020 07 31QN^rAstrometry^redacted;I7VLg*:-K(]kL*\)K,XC_M^h-g'%F52
     P213r5K  C2020 07 31%Pq6V8@pEy]j%g'vJR()Og0QKR9lYrci.@((6((ieLo-SkW_M`4:F52
     P213r5K pC2020 08 01J@e#Y26Q*A8tItd+.pOWW\5vOOdi^.Wq@GI$!DpuGk`RGHP%Z3'IL01
     P213r5K KC2020 08 01cVx'yRf-c](1`,2*#bQnH];J`lOtYclickVCvfA#eNiL7MTHga5rL01
     P213r5K KC2020 08 01dw#2y;'I!Mxu,.r(Nm,mAO?YVN[D5ppSmM?FhFoitGZ/jc]^IP%RL01
     P213r5K pC2020 08 01J8/xt-gj#t8here*9^sfor9.gU5H?%echexplanation-C@1[)c/L01
     P213r5K  C2020 08 016*Tm$lRq*KdlgRVA6?wy-^v'o212A!uItA!kL0rmbt$o:[GmB+jIF51
     P213r5K  C2020 08 01U4gw6^s9X::J@@ZmgvAk87+M^yICCLxya@vQ$Ij\d^`^$tQEJM7bF51
     P213r5K  C2020 08 01dviO8yreRKrHWPK!f5_'N=!YbL,ShJP2Y$,CXWI*YZZ+5tN'Hk](F51

Station data:
(F51) Pan-STARRS 1, Haleakala  (N20.707235 W156.255910)  US/Hawaii.
   Observers N. Primak, A. Schultz, S. Watters, J. Thiel, T. Goggia. Measurer
   PS1 Science Consortium. 1.8-m Ritchey-Chrétien + CCD.
(F52) Pan-STARRS 2, Haleakala  (N20.707384 W156.255910)  US/Hawaii. 1.8-m
   Ritchey-Chrétien + CCD.
(L01) Višnjan Observatory, Tičan  (N45.290900 E13.749300)  Croatia.
   Observers K. Korlević, E. Pettarin. Measurer E. Pettarin. 1.0-m f/2.9
   reflector + CCD.

Orbital elements:  P213r5K
   Perihelion 2020 Oct 7.814817 +/- 4.36 TT = 19:33:20 (JD 2459130.314817)
Epoch 2020 Aug  1.0 TT = JDT 2459062.5   Earth MOID: 0.1488   Ma: 0.0373
M 327.85230124 +/- 5.2              (J2000 ecliptic)          AutoNEOCP
n   0.47405125 +/- 0.0512           Peri.  248.34915 +/- 4.8
a   1.62899287 +/- 0.117            Node   143.04403 +/- 0.6
e   0.3524004 +/- 0.0346            Incl.   10.70842 +/- 0.38
P   2.08/759.40d           H 20.9   G  0.15   U 10.7  
q 1.05493497 +/- 0.0232    Q 2.20305076 +/- 0.233
From 10 observations 2020 July 31-Aug. 1 (24.8 hr); mean residual 0".32
Residuals in arcseconds: 
200731 F52  .00   .11-    200801 L01  .15+  .27-    200801 F51  .17-  .03-    
200731 F52  .05-  .09-    200801 L01  .11-  .09-    200801 F51  .06+  .02+    
200731 F52  .04+  .17+    200801 L01  .94-  .13+    
200801 L01  .90+  .30+    200801 F51  .12+  .03-    

Ephemerides (geocentric):
Date (UTC) HH   RA              Dec         delta   r     elong  mag " sig PA
---- -- -- --  -------------   -----------  ------ ------ -----  --- ---- ---
2020 08 11 23  01 58 16.315   +03 39 06.86  .36120 1.1886 110.4 21.0  208  96
2020 08 12 00  01 58 29.534   +03 38 49.36  .36101 1.1885 110.4 21.0  210  96
2020 08 12 01  01 58 42.759   +03 38 31.80  .36083 1.1883 110.4 21.0  212  96
2020 08 12 02  01 58 55.991   +03 38 14.18  .36065 1.1881 110.4 21.0  214  96
2020 08 12 03  01 59 09.230   +03 37 56.50  .36047 1.1879 110.4 21.0  216  96
2020 08 12 04  01 59 22.475   +03 37 38.76  .36029 1.1878 110.4 21.0  217  96
2020 08 12 05  01 59 35.727   +03 37 20.96  .36010 1.1876 110.4 21.0  219  96
2020 08 12 06  01 59 48.986   +03 37 03.09  .35992 1.1874 110.3 21.0  221  96
2020 08 12 07  02 00 02.251   +03 36 45.17  .35974 1.1873 110.3 21.0  223  96
2020 08 12 08  02 00 15.523   +03 36 27.18  .35956 1.1871 110.3 21.0  225  96
2020 08 12 09  02 00 28.802   +03 36 09.14  .35938 1.1869 110.3 21.0  227  96
2020 08 12 10  02 00 42.087   +03 35 51.03  .35920 1.1867 110.3 21.0  229  96
2020 08 12 11  02 00 55.379   +03 35 32.86  .35902 1.1866 110.3 21.0  231  96
2020 08 12 12  02 01 08.678   +03 35 14.64  .35884 1.1864 110.3 21.0  233  96
2020 08 12 13  02 01 21.983   +03 34 56.35  .35866 1.1862 110.3 21.0  235  96
2020 08 12 14  02 01 35.294   +03 34 38.00  .35849 1.1860 110.3 21.0  237  96
2020 08 12 15  02 01 48.613   +03 34 19.59  .35831 1.1859 110.2 21.0  239  96
2020 08 12 16  02 02 01.937   +03 34 01.11  .35813 1.1857 110.2 21.0  241  96
2020 08 12 17  02 02 15.269   +03 33 42.58  .35795 1.1855 110.2 21.0  243  96
2020 08 12 18  02 02 28.607   +03 33 23.99  .35777 1.1853 110.2 21.0  245  96
2020 08 12 19  02 02 41.951   +03 33 05.34  .35760 1.1852 110.2 21.0  247  96
2020 08 12 20  02 02 55.302   +03 32 46.62  .35742 1.1850 110.2 21.0  249  96
2020 08 12 21  02 03 08.660   +03 32 27.85  .35724 1.1848 110.2 21.0  251  96
2020 08 12 22  02 03 22.024   +03 32 09.01  .35707 1.1847 110.2 21.0  253  96
2020 08 12 23  02 03 35.395   +03 31 50.11  .35689 1.1845 110.1 21.0  255  96
2020 08 13 00  02 03 48.772   +03 31 31.15  .35671 1.1843 110.1 21.0  257  96
2020 08 13 01  02 04 02.155   +03 31 12.13  .35654 1.1841 110.1 21.0  259  96
2020 08 13 02  02 04 15.545   +03 30 53.05  .35636 1.1840 110.1 20.9  261  96
2020 08 13 03  02 04 28.942   +03 30 33.91  .35619 1.1838 110.1 20.9  263  96
2020 08 13 04  02 04 42.345   +03 30 14.71  .35601 1.1836 110.1 20.9  265  96
2020 08 13 05  02 04 55.754   +03 29 55.45  .35584 1.1835 110.1 20.9  267  96
2020 08 13 06  02 05 09.170   +03 29 36.12  .35567 1.1833 110.1 20.9  270  96
2020 08 13 07  02 05 22.592   +03 29 16.74  .35549 1.1831 110.0 20.9  272  96
2020 08 13 08  02 05 36.021   +03 28 57.29  .35532 1.1829 110.0 20.9  274  96
2020 08 13 09  02 05 49.456   +03 28 37.79  .35515 1.1828 110.0 20.9  276  96
2020 08 13 10  02 06 02.898   +03 28 18.22  .35497 1.1826 110.0 20.9  278  96
2020 08 13 11  02 06 16.346   +03 27 58.59  .35480 1.1824 110.0 20.9  280  96
2020 08 13 12  02 06 29.800   +03 27 38.90  .35463 1.1823 110.0 20.9  283  96
2020 08 13 13  02 06 43.261   +03 27 19.15  .35446 1.1821 110.0 20.9  285  96
2020 08 13 14  02 06 56.727   +03 26 59.34  .35428 1.1819 110.0 20.9  287  96
2020 08 13 15  02 07 10.201   +03 26 39.47  .35411 1.1817 109.9 20.9  289  96
2020 08 13 16  02 07 23.680   +03 26 19.54  .35394 1.1816 109.9 20.9  291  96
2020 08 13 17  02 07 37.166   +03 25 59.55  .35377 1.1814 109.9 20.9  294  96
2020 08 13 18  02 07 50.659   +03 25 39.49  .35360 1.1812 109.9 20.9  296  96
2020 08 13 19  02 08 04.157   +03 25 19.38  .35343 1.1811 109.9 20.9  298  96
2020 08 13 20  02 08 17.662   +03 24 59.20  .35326 1.1809 109.9 20.9  301  96
2020 08 13 21  02 08 31.173   +03 24 38.96  .35309 1.1807 109.9 20.9  303  96
2020 08 13 22  02 08 44.691   +03 24 18.67  .35292 1.1805 109.9 20.9  305  96